Weather in Southport

United Kingdom     53°38′50″N   3°00′26″W
temp.,
°C
wind,
m/s
gust,
m/s
humid.,
%
clouds,
%
prec.,
mm/h
press.,
hPa
HPBL,
m
18 may, tue
tue1801:00+9wsw3587100 0.2 1010101
04:00+9ssw3489100 0.6 1010162
07:00+10wnw248642 3.0 1010177
10:00+11w56735 0.8 1012733
13:00+12w55705 0.8 1012906
16:00+12wnw446673 0.0 1012722
19:00+11wnw34710 0.0 1013423
22:00+8w238218 0.0 101475
19 may, wed
wed1901:00+8wnw238750 0.0 1014105
04:00+8wsw238643 0.0 1014112
07:00+9wsw358736 0.3 1015254
10:00+11nw567713 1.1 1017650
13:00+12wnw67735 1.2 1018853
16:00+12w67710 0.0 1019756
19:00+11w46740 0.0 1019461
22:00+9w35863 0.0 1020106
20 may, thu
thu2001:00+8s33895 0.0 101988
04:00+6se4590100 0.0 1018108
07:00+7se5885100 0.0 1017230
10:00+11sse7970100 0.0 1014848
13:00+9se81391100 4.9 10101178
16:00+9se101692100 0.8 1005816
19:00+12s9148097 2.2 1000997
22:00+11ssw111985100 2.9 9981409
21 may, fri
fri2101:00+10s111886100 3.4 9951370
04:00+10s111990100 2.3 9911384
07:00+10s101792100 5.0 9871198
10:00+10sw101497100 4.6 983861
13:00+10w111395100 6.2 986784
16:00+11wnw7893100 1.1 988553
19:00+10nnw7991100 2.3 990414
22:00+9nnw9119098 0.9 994404
22 may, sat
sat2201:00+8nnw6887100 1.1 996456
04:00+8nnw8108498 0.1 998597
07:00+8nw798169 0.1 1000905
10:00+8nw797993 0.6 10021153
13:00+9nw9117492 1.4 10041419
16:00+10wnw1012585 0.3 10061563
19:00+9wnw911665 0.4 10071343
22:00+8wnw811685 0.1 1009710